| time (UTC) | temp F | wind direction | speed knots | gust knots | rain 1hr in | rain 24hr in | rain mn in | humidity % | barometer mb |
| 20260505111803 | 71 | 288 | 3.5 | 11.3 | 0.00 | 0.00 | 0.00 | 34 | 1013.5 |
| 20260505110904 | 71 | 314 | 2.6 | 9.6 | 0.00 | 0.00 | 0.00 | 32 | 1013.7 |
| 20260505102019 | 69 | 312 | 2.6 | 10.4 | 0.00 | 0.00 | 0.00 | 37 | 1014.0 |
| 20260505100903 | 69 | 270 | 1.7 | 6.1 | 0.00 | 0.00 | 0.00 | 35 | 1014.0 |
| 20260505100003 | 68 | 294 | 2.6 | 8.7 | 0.00 | 0.00 | 0.00 | 40 | 1014.0 |
| 20260505095403 | 68 | 296 | 2.6 | 6.1 | 0.00 | 0.00 | 0.00 | 41 | 1014.0 |
| 20260505094718 | 68 | 241 | 0.9 | 3.5 | 0.00 | 0.00 | 0.00 | 45 | 1014.0 |
| 20260505093603 | 67 | 316 | 1.7 | 4.3 | 0.00 | 0.00 | 0.00 | 47 | 1014.1 |
| 20260505092703 | 66 | 307 | 1.7 | 5.2 | 0.00 | 0.00 | 0.00 | 49 | 1014.2 |
| 20260505091803 | 66 | 191 | 0.9 | 3.5 | 0.00 | 0.00 | 0.00 | 50 | 1014.3 |
| 20260505090903 | 66 | 211 | 0.9 | 3.5 | 0.00 | 0.00 | 0.00 | 51 | 1014.3 |
| 20260505090003 | 64 | 332 | 0.9 | 2.6 | 0.00 | 0.00 | 0.00 | 52 | 1014.4 |
| 20260505085403 | 63 | 294 | 0.9 | 2.6 | 0.00 | 0.00 | 0.00 | 54 | 1014.4 |
| 20260505084503 | 63 | 262 | 0.9 | 5.2 | 0.00 | 0.00 | 0.00 | 55 | 1014.5 |
| 20260505083603 | 62 | 262 | 0.9 | 5.2 | 0.00 | 0.00 | 0.00 | 56 | 1014.5 |
| 20260505082703 | 62 | 276 | 0.9 | 3.5 | 0.00 | 0.00 | 0.00 | 57 | 1014.5 |
| 20260505081803 | 62 | 298 | 0.9 | 4.3 | 0.00 | 0.00 | 0.00 | 57 | 1014.6 |
| 20260505080903 | 61 | 299 | 0.9 | 5.2 | 0.00 | 0.00 | 0.00 | 57 | 1014.6 |
| 20260505080003 | 61 | 325 | 1.7 | 5.2 | 0.00 | 0.00 | 0.00 | 59 | 1014.7 |
| 20260505075616 | 61 | 323 | 0.9 | 5.2 | 0.00 | 0.00 | 0.00 | 59 | 1014.6 |
| 20260505074503 | 60 | 319 | 1.7 | 5.2 | 0.00 | 0.00 | 0.00 | 59 | 1014.6 |
| 20260505073603 | 60 | 325 | 1.7 | 6.1 | 0.00 | 0.00 | 0.00 | 60 | 1014.6 |
| 20260505072703 | 59 | 326 | 1.7 | 6.1 | 0.00 | 0.00 | 0.00 | 60 | 1014.6 |
| 20260505071803 | 59 | 325 | 2.6 | 7.0 | 0.00 | 0.00 | 0.00 | 62 | 1014.6 |
| 20260505070903 | 59 | 334 | 0.9 | 6.1 | 0.00 | 0.00 | 0.00 | 64 | 1014.6 |
| 20260505070003 | 58 | 341 | 0.0 | 4.3 | 0.00 | 0.00 | 0.00 | 66 | 1014.6 |
| 20260505065403 | 57 | 331 | 0.0 | 1.7 | 0.00 | 0.00 | 0.00 | 71 | 1014.6 |
| 20260505064503 | 56 | 330 | 0.0 | 1.7 | 0.00 | 0.00 | 0.00 | 73 | 1014.5 |
| 20260505063817 | 55 | 318 | 0.9 | 3.5 | 0.00 | 0.00 | 0.00 | 74 | 1014.5 |
| 20260505062703 | 54 | 320 | 0.9 | 2.6 | 0.00 | 0.00 | 0.00 | 77 | 1014.4 |
| 20260505061803 | 54 | 326 | 0.0 | 2.6 | 0.00 | 0.00 | 0.00 | 79 | 1014.3 |
| 20260505060903 | 54 | 328 | 0.0 | 1.7 | 0.00 | 0.00 | 0.00 | 76 | 1014.3 |
| 20260505060221 | 55 | 334 | 0.0 | 0.9 | 0.00 | 0.00 | 0.00 | 74 | 1014.2 |
| 20260505055403 | 56 | 0 | 0.0 | 0.0 | 0.00 | 0.00 | 0.00 | 69 | 1014.2 |
| 20260505054503 | 56 | 340 | 0.0 | 4.3 | 0.00 | 0.00 | 0.00 | 66 | 1014.0 |
| 20260505053603 | 56 | 341 | 0.0 | 5.2 | 0.00 | 0.00 | 0.00 | 66 | 1013.8 |
| 20260505052703 | 56 | 327 | 0.0 | 1.7 | 0.00 | 0.00 | 0.00 | 69 | 1013.8 |
| 20260505051803 | 56 | 322 | 0.0 | 1.7 | 0.00 | 0.00 | 0.00 | 68 | 1013.8 |
| 20260505050903 | 56 | 315 | 0.0 | 1.7 | 0.00 | 0.00 | 0.00 | 69 | 1013.7 |
| 20260505050217 | 55 | 319 | 0.0 | 1.7 | 0.00 | 0.00 | 0.00 | 72 | 1013.7 |
| 20260505040903 | 55 | 82 | 0.0 | 1.7 | 0.00 | 0.00 | 0.00 | 72 | 1013.6 |
| 20260505040004 | 55 | 0 | 0.0 | 0.0 | 0.00 | 0.00 | 0.00 | 71 | 1013.6 |
| 20260505035403 | 55 | 0 | 0.0 | 0.0 | 0.00 | 0.00 | 0.00 | 71 | 1013.6 |
| 20260505034503 | 55 | 0 | 0.0 | 0.0 | 0.00 | 0.00 | 0.00 | 72 | 1013.6 |
| 20260505033603 | 56 | 0 | 0.0 | 0.0 | 0.00 | 0.00 | 0.00 | 72 | 1013.7 |
| 20260505032703 | 55 | 338 | 0.0 | 0.9 | 0.00 | 0.00 | 0.00 | 72 | 1013.7 |
| 20260505031803 | 56 | 0 | 0.0 | 0.0 | 0.00 | 0.00 | 0.00 | 72 | 1013.6 |
| 20260505030903 | 56 | 0 | 0.0 | 0.0 | 0.00 | 0.00 | 0.00 | 73 | 1013.7 |
| 20260505030003 | 56 | 5 | 0.0 | 0.9 | 0.00 | 0.00 | 0.00 | 72 | 1013.6 |
| 20260505025403 | 56 | 355 | 0.0 | 0.9 | 0.00 | 0.00 | 0.00 | 72 | 1013.6 |
| 20260505024503 | 55 | 0 | 0.0 | 0.0 | 0.00 | 0.00 | 0.00 | 75 | 1013.6 |
| 20260505023603 | 55 | 0 | 0.0 | 0.0 | 0.00 | 0.00 | 0.00 | 76 | 1013.6 |
| 20260505022703 | 56 | 0 | 0.0 | 0.9 | 0.00 | 0.00 | 0.00 | 74 | 1013.6 |
| 20260505021803 | 57 | 332 | 0.0 | 0.9 | 0.00 | 0.00 | 0.00 | 73 | 1013.6 |
| 20260505020903 | 57 | 332 | 0.0 | 0.9 | 0.00 | 0.00 | 0.00 | 72 | 1013.6 |
| 20260505020003 | 57 | 0 | 0.0 | 0.0 | 0.00 | 0.00 | 0.00 | 71 | 1013.7 |
| 20260505015403 | 57 | 344 | 0.0 | 0.9 | 0.00 | 0.00 | 0.00 | 71 | 1013.7 |
| 20260505014503 | 56 | 0 | 0.0 | 0.0 | 0.00 | 0.00 | 0.00 | 73 | 1013.6 |
| 20260505013603 | 56 | 0 | 0.0 | 0.0 | 0.00 | 0.00 | 0.00 | 77 | 1013.7 |
| 20260505012703 | 56 | 0 | 0.0 | 0.0 | 0.00 | 0.00 | 0.00 | 76 | 1013.8 |
| 20260505012020 | 56 | 0 | 0.0 | 0.0 | 0.00 | 0.00 | 0.00 | 76 | 1013.8 |
| 20260505010903 | 56 | 0 | 0.0 | 0.0 | 0.00 | 0.00 | 0.00 | 75 | 1013.9 |
| 20260505010219 | 57 | 0 | 0.0 | 0.0 | 0.00 | 0.00 | 0.00 | 72 | 1014.0 |
| 20260505005403 | 58 | 0 | 0.0 | 0.0 | 0.00 | 0.00 | 0.00 | 72 | 1014.1 |
| 20260505004503 | 58 | 0 | 0.0 | 0.0 | 0.00 | 0.00 | 0.00 | 71 | 1014.1 |
| 20260505003603 | 57 | 0 | 0.0 | 0.0 | 0.00 | 0.00 | 0.00 | 74 | 1014.1 |
| 20260505002703 | 57 | 0 | 0.0 | 0.0 | 0.00 | 0.00 | 0.00 | 74 | 1014.0 |
| 20260505002020 | 57 | 0 | 0.0 | 0.0 | 0.00 | 0.00 | 0.00 | 75 | 1014.2 |
| 20260505000903 | 57 | 0 | 0.0 | 0.0 | 0.00 | 0.00 | 0.00 | 74 | 1014.2 |
| 20260505000003 | 59 | 0 | 0.0 | 0.0 | 0.00 | 0.00 | 0.00 | 69 | 1014.1 |
| 20260504235403 | 59 | 0 | 0.0 | 0.0 | 0.00 | 0.00 | 0.00 | 68 | 1014.1 |
| 20260504234503 | 59 | 0 | 0.0 | 0.0 | 0.00 | 0.00 | 0.00 | 67 | 1014.1 |
| 20260504233603 | 59 | 0 | 0.0 | 0.0 | 0.00 | 0.00 | 0.00 | 67 | 1014.0 |
| 20260504232703 | 58 | 0 | 0.0 | 0.0 | 0.00 | 0.00 | 0.00 | 68 | 1014.0 |
| 20260504232021 | 58 | 0 | 0.0 | 0.0 | 0.00 | 0.00 | 0.00 | 73 | 1014.1 |
| 20260504230903 | 59 | 0 | 0.0 | 0.0 | 0.00 | 0.00 | 0.00 | 71 | 1014.1 |
| 20260504230221 | 59 | 0 | 0.0 | 0.0 | 0.00 | 0.00 | 0.00 | 70 | 1014.1 |
| 20260504225403 | 60 | 0 | 0.0 | 0.0 | 0.00 | 0.00 | 0.00 | 70 | 1014.0 |
| 20260504224503 | 60 | 0 | 0.0 | 0.0 | 0.00 | 0.00 | 0.00 | 70 | 1014.0 |
| 20260504223603 | 60 | 0 | 0.0 | 0.0 | 0.00 | 0.00 | 0.00 | 69 | 1014.0 |
| 20260504222919 | 61 | 0 | 0.0 | 0.0 | 0.00 | 0.00 | 0.00 | 69 | 1013.8 |
| 20260504221803 | 61 | 0 | 0.0 | 0.0 | 0.00 | 0.00 | 0.00 | 69 | 1013.9 |
| 20260504220903 | 60 | 0 | 0.0 | 0.0 | 0.00 | 0.00 | 0.00 | 71 | 1013.9 |
| 20260504220004 | 60 | 66 | 0.0 | 3.5 | 0.00 | 0.00 | 0.00 | 70 | 1013.9 |
| 20260504215403 | 62 | 0 | 0.0 | 0.0 | 0.00 | 0.00 | 0.00 | 67 | 1013.8 |
| 20260504214503 | 62 | 294 | 0.0 | 1.7 | 0.00 | 0.00 | 0.00 | 67 | 1013.8 |
| 20260504213603 | 62 | 288 | 0.0 | 3.5 | 0.00 | 0.00 | 0.00 | 67 | 1013.8 |
| 20260504212703 | 62 | 284 | 0.0 | 2.6 | 0.00 | 0.00 | 0.00 | 67 | 1013.8 |
| 20260504211803 | 63 | 290 | 0.0 | 1.7 | 0.00 | 0.00 | 0.00 | 66 | 1013.7 |
| 20260504211119 | 63 | 266 | 0.0 | 0.9 | 0.00 | 0.00 | 0.00 | 66 | 1013.7 |
| 20260504210003 | 64 | 277 | 0.0 | 4.3 | 0.00 | 0.00 | 0.00 | 64 | 1013.7 |
| 20260504205403 | 64 | 278 | 0.0 | 4.3 | 0.00 | 0.00 | 0.00 | 64 | 1013.6 |
| 20260504204503 | 64 | 277 | 0.9 | 5.2 | 0.00 | 0.00 | 0.00 | 63 | 1013.5 |
| 20260504203603 | 64 | 274 | 0.9 | 5.2 | 0.00 | 0.00 | 0.00 | 63 | 1013.4 |
| 20260504202703 | 65 | 284 | 0.9 | 5.2 | 0.00 | 0.00 | 0.00 | 62 | 1013.4 |
| 20260504201803 | 65 | 281 | 0.9 | 6.1 | 0.00 | 0.00 | 0.00 | 61 | 1013.2 |
| 20260504200903 | 66 | 277 | 1.7 | 7.0 | 0.00 | 0.00 | 0.00 | 60 | 1013.1 |
| 20260504200217 | 66 | 272 | 1.7 | 7.8 | 0.00 | 0.00 | 0.00 | 60 | 1013.0 |
| 20260504195403 | 66 | 278 | 0.9 | 7.8 | 0.00 | 0.00 | 0.00 | 59 | 1012.9 |
| 20260504194503 | 67 | 277 | 1.7 | 6.1 | 0.00 | 0.00 | 0.00 | 59 | 1012.7 |
| 20260504193603 | 67 | 280 | 2.6 | 9.6 | 0.00 | 0.00 | 0.00 | 58 | 1012.6 |
| 20260504192703 | 68 | 276 | 1.7 | 7.8 | 0.00 | 0.00 | 0.00 | 57 | 1012.5 |
| 20260504191803 | 68 | 272 | 2.6 | 10.4 | 0.00 | 0.00 | 0.00 | 56 | 1012.5 |
| 20260504190903 | 69 | 265 | 2.6 | 9.6 | 0.00 | 0.00 | 0.00 | 55 | 1012.3 |
| 20260504190003 | 69 | 274 | 2.6 | 8.7 | 0.00 | 0.00 | 0.00 | 54 | 1012.2 |
| 20260504185620 | 70 | 268 | 3.5 | 11.3 | 0.00 | 0.00 | 0.00 | 53 | 1012.2 |
| 20260504184503 | 70 | 273 | 3.5 | 9.6 | 0.00 | 0.00 | 0.00 | 52 | 1012.0 |
| 20260504183603 | 72 | 275 | 2.6 | 10.4 | 0.00 | 0.00 | 0.00 | 51 | 1012.0 |
| 20260504182918 | 72 | 268 | 3.5 | 12.2 | 0.00 | 0.00 | 0.00 | 50 | 1011.8 |
| 20260504181803 | 73 | 269 | 3.5 | 13.9 | 0.00 | 0.00 | 0.00 | 48 | 1011.7 |
| 20260504180903 | 73 | 259 | 4.3 | 13.9 | 0.00 | 0.00 | 0.00 | 47 | 1011.7 |
| 20260504180219 | 74 | 255 | 5.2 | 13.0 | 0.00 | 0.00 | 0.00 | 49 | 1011.7 |
| 20260504175403 | 74 | 255 | 5.2 | 13.0 | 0.00 | 0.00 | 0.00 | 48 | 1011.6 |
| 20260504174503 | 75 | 259 | 4.3 | 11.3 | 0.00 | 0.00 | 0.00 | 46 | 1011.5 |
| 20260504173603 | 77 | 275 | 2.6 | 9.6 | 0.00 | 0.00 | 0.00 | 34 | 1011.5 |
| 20260504172703 | 77 | 284 | 2.6 | 8.7 | 0.00 | 0.00 | 0.00 | 31 | 1011.6 |
| 20260504171803 | 78 | 271 | 1.7 | 9.6 | 0.00 | 0.00 | 0.00 | 32 | 1011.6 |
| 20260504171117 | 78 | 272 | 1.7 | 7.0 | 0.00 | 0.00 | 0.00 | 32 | 1011.6 |
| 20260504150903 | 78 | 286 | 0.9 | 8.7 | 0.00 | 0.00 | 0.00 | 33 | 1011.9 |
| 20260504140903 | 76 | 275 | 0.0 | 7.8 | 0.00 | 0.00 | 0.00 | 34 | 1012.5 |
| 20260504130217 | 75 | 243 | 1.7 | 7.8 | 0.00 | 0.00 | 0.00 | 37 | 1013.0 |
| 20260504120217 | 73 | 240 | 1.7 | 6.1 | 0.00 | 0.00 | 0.00 | 41 | 1013.6 |